Time,TemperatureF,DewpointF,PressureIn,WindDirection,WindDirectionDegrees,WindSpeedMPH,WindSpeedGustMPH,Humidity,HourlyPrecipIn,Conditions,Clouds,dailyrainin,SoftwareType,DateUTC
2013-01-11 00:01:00,39.4,12.0,30.45,NW,320,0.0,0.0,32,0.00,,---,0.00,VWS V14.01,2013-01-11 05:01:00,
2013-01-11 00:02:00,39.4,12.0,30.45,WNW,300,0.0,0.0,32,0.00,,---,0.00,VWS V14.01,2013-01-11 05:02:00,
2013-01-11 00:05:00,39.2,11.8,30.45,NW,316,0.0,0.0,32,0.00,,---,0.00,VWS V14.01,2013-01-11 05:05:00,
2013-01-11 00:06:00,39.2,11.8,30.45,NNW,327,0.0,0.0,32,0.00,,---,0.00,VWS V14.01,2013-01-11 05:06:00,
2013-01-11 00:12:00,39.0,12.4,30.45,NW,313,0.0,0.0,33,0.00,,---,0.00,VWS V14.01,2013-01-11 05:12:00,
2013-01-11 00:17:00,39.2,12.5,30.45,WNW,283,0.0,0.0,33,0.00,,---,0.00,VWS V14.01,2013-01-11 05:17:00,
2013-01-11 00:23:00,39.4,12.7,30.45,NNW,329,0.0,0.0,33,0.00,,---,0.00,VWS V14.01,2013-01-11 05:23:00,
2013-01-11 00:28:00,39.7,13.0,30.45,NNW,346,0.0,0.0,33,0.00,,---,0.00,VWS V14.01,2013-01-11 05:28:00,
2013-01-11 00:33:00,39.7,13.0,30.45,NW,314,0.0,0.0,33,0.00,,---,0.00,VWS V14.01,2013-01-11 05:33:00,
2013-01-11 00:38:00,39.7,13.0,30.45,North,357,0.0,0.0,33,0.00,,---,0.00,VWS V14.01,2013-01-11 05:38:00,
2013-01-11 00:44:00,39.7,13.0,30.45,NW,320,0.0,0.0,33,0.00,,---,0.00,VWS V14.01,2013-01-11 05:44:00,
2013-01-11 00:49:00,40.5,13.6,30.45,North,9,0.0,0.0,33,0.00,,---,0.00,VWS V14.01,2013-01-11 05:49:00,
2013-01-11 00:55:00,40.6,13.8,30.42,North,357,0.0,0.0,33,0.00,,---,0.00,VWS V14.01,2013-01-11 05:55:00,
2013-01-11 01:01:00,41.0,13.4,30.42,NNE,13,0.0,0.0,32,0.00,,---,0.00,VWS V14.01,2013-01-11 06:01:00,
2013-01-11 01:06:00,41.0,13.4,30.45,NNE,15,0.0,0.0,32,0.00,,---,0.00,VWS V14.01,2013-01-11 06:06:00,
2013-01-11 01:11:00,41.0,13.4,30.45,NW,321,0.0,0.0,32,0.00,,---,0.00,VWS V14.01,2013-01-11 06:11:00,
2013-01-11 01:16:00,40.8,13.3,30.45,North,1,0.0,0.0,32,0.00,,---,0.00,VWS V14.01,2013-01-11 06:16:00,
2013-01-11 01:22:00,40.5,12.9,30.45,NW,318,0.0,0.0,32,0.00,,---,0.00,VWS V14.01,2013-01-11 06:22:00,
2013-01-11 01:27:00,40.3,12.8,30.45,NNW,327,0.0,0.0,32,0.00,,---,0.00,VWS V14.01,2013-01-11 06:27:00,
2013-01-11 01:33:00,39.7,12.3,30.45,North,1,0.0,0.0,32,0.00,,---,0.00,VWS V14.01,2013-01-11 06:33:00,
2013-01-11 01:38:00,39.6,12.1,30.45,NW,325,0.0,0.0,32,0.00,,---,0.00,VWS V14.01,2013-01-11 06:38:00,
2013-01-11 01:44:00,39.4,12.0,30.45,North,357,0.0,0.0,32,0.00,,---,0.00,VWS V14.01,2013-01-11 06:44:00,
2013-01-11 01:49:00,39.2,11.8,30.45,NW,319,0.0,0.0,32,0.00,,---,0.00,VWS V14.01,2013-01-11 06:49:00,
2013-01-11 01:55:00,39.2,11.8,30.45,NW,317,0.0,0.0,32,0.00,,---,0.00,VWS V14.01,2013-01-11 06:55:00,
2013-01-11 02:01:00,39.2,12.5,30.45,WNW,288,0.0,0.0,33,0.00,,---,0.00,VWS V14.01,2013-01-11 07:01:00,
2013-01-11 02:06:00,39.0,12.4,30.45,NNE,21,0.0,0.0,33,0.00,,---,0.00,VWS V14.01,2013-01-11 07:06:00,
2013-01-11 02:11:00,39.0,12.4,30.45,NW,310,0.0,0.0,33,0.00,,---,0.00,VWS V14.01,2013-01-11 07:11:00,
2013-01-11 02:16:00,38.8,12.2,30.45,NE,40,0.0,0.0,33,0.00,,---,0.00,VWS V14.01,2013-01-11 07:16:00,
2013-01-11 02:22:00,39.4,12.7,30.45,NNW,342,0.0,0.0,33,0.00,,---,0.00,VWS V14.01,2013-01-11 07:22:00,
2013-01-11 02:27:00,39.7,13.0,30.45,NNW,345,0.0,0.0,33,0.00,,---,0.00,VWS V14.01,2013-01-11 07:27:00,
2013-01-11 02:32:00,39.7,13.0,30.45,NW,318,0.0,0.0,33,0.00,,---,0.00,VWS V14.01,2013-01-11 07:32:00,
2013-01-11 02:37:00,39.7,13.0,30.42,NW,313,0.0,0.0,33,0.00,,---,0.00,VWS V14.01,2013-01-11 07:37:00,
2013-01-11 02:43:00,39.0,12.4,30.42,NW,304,0.0,0.0,33,0.00,,---,0.00,VWS V14.01,2013-01-11 07:43:00,
2013-01-11 02:48:00,38.5,11.9,30.42,NW,308,0.0,0.0,33,0.00,,---,0.00,VWS V14.01,2013-01-11 07:48:00,
2013-01-11 02:53:00,37.9,11.4,30.42,NW,321,0.0,0.0,33,0.00,,---,0.00,VWS V14.01,2013-01-11 07:53:00,
2013-01-11 02:58:00,37.8,11.3,30.42,NW,319,0.0,0.0,33,0.00,,---,0.00,VWS V14.01,2013-01-11 07:58:00,
2013-01-11 03:04:00,37.4,10.9,30.42,NW,316,0.0,0.0,33,0.00,,---,0.00,VWS V14.01,2013-01-11 08:04:00,
2013-01-11 03:09:00,37.2,10.8,30.42,NNW,344,0.0,0.0,33,0.00,,---,0.00,VWS V14.01,2013-01-11 08:09:00,
2013-01-11 03:15:00,37.2,11.4,30.42,NW,309,0.0,0.0,34,0.00,,---,0.00,VWS V14.01,2013-01-11 08:15:00,
2013-01-11 03:21:00,37.4,10.9,30.42,NNE,22,0.0,0.0,33,0.00,,---,0.00,VWS V14.01,2013-01-11 08:21:00,
2013-01-11 03:27:00,37.2,11.4,30.42,NNW,348,0.0,0.0,34,0.00,,---,0.00,VWS V14.01,2013-01-11 08:27:00,
2013-01-11 03:33:00,37.0,11.3,30.42,NW,308,0.0,0.0,34,0.00,,---,0.00,VWS V14.01,2013-01-11 08:33:00,
2013-01-11 03:38:00,37.0,11.3,30.42,NW,312,0.0,0.0,34,0.00,,---,0.00,VWS V14.01,2013-01-11 08:38:00,
2013-01-11 03:43:00,37.0,11.3,30.42,NW,308,0.0,0.0,34,0.00,,---,0.00,VWS V14.01,2013-01-11 08:43:00,
2013-01-11 03:48:00,36.7,11.0,30.42,NW,312,0.0,0.0,34,0.00,,---,0.00,VWS V14.01,2013-01-11 08:48:00,
2013-01-11 03:54:00,36.1,10.5,30.42,NW,309,0.0,0.0,34,0.00,,---,0.00,VWS V14.01,2013-01-11 08:54:00,
2013-01-11 04:00:00,35.8,10.2,30.42,WNW,297,0.0,0.0,34,0.00,,---,0.00,VWS V14.01,2013-01-11 09:00:00,
2013-01-11 04:05:00,35.6,10.0,30.42,WNW,300,0.0,0.0,34,0.00,,---,0.00,VWS V14.01,2013-01-11 09:05:00,
2013-01-11 04:11:00,35.4,9.9,30.42,WNW,303,0.0,0.0,34,0.00,,---,0.00,VWS V14.01,2013-01-11 09:11:00,
2013-01-11 04:17:00,34.9,9.4,30.42,WNW,303,0.0,0.0,34,0.00,,---,0.00,VWS V14.01,2013-01-11 09:17:00,
2013-01-11 04:22:00,34.7,9.2,30.39,WNW,303,0.0,0.0,34,0.00,,---,0.00,VWS V14.01,2013-01-11 09:22:00,
2013-01-11 04:28:00,34.3,8.9,30.39,WNW,303,0.0,0.0,34,0.00,,---,0.00,VWS V14.01,2013-01-11 09:28:00,
2013-01-11 04:33:00,34.3,8.9,30.39,WNW,303,0.0,0.0,34,0.00,,---,0.00,VWS V14.01,2013-01-11 09:33:00,
2013-01-11 04:39:00,34.0,8.6,30.39,WNW,303,0.0,0.0,34,0.00,,---,0.00,VWS V14.01,2013-01-11 09:39:00,
2013-01-11 04:44:00,33.8,8.4,30.39,WNW,303,0.0,0.0,34,0.00,,---,0.00,VWS V14.01,2013-01-11 09:44:00,
2013-01-11 04:50:00,33.8,8.4,30.39,WNW,303,0.0,0.0,34,0.00,,---,0.00,VWS V14.01,2013-01-11 09:50:00,
2013-01-11 04:56:00,33.6,8.3,30.39,WNW,303,0.0,0.0,34,0.00,,---,0.00,VWS V14.01,2013-01-11 09:56:00,
2013-01-11 05:01:00,33.6,8.3,30.39,WNW,303,0.0,0.0,34,0.00,,---,0.00,VWS V14.01,2013-01-11 10:01:00,
2013-01-11 05:06:00,33.6,8.3,30.39,WNW,303,0.0,0.0,34,0.00,,---,0.00,VWS V14.01,2013-01-11 10:06:00,
2013-01-11 05:11:00,33.6,8.3,30.39,WNW,303,0.0,0.0,34,0.00,,---,0.00,VWS V14.01,2013-01-11 10:11:00,
2013-01-11 05:17:00,33.4,8.1,30.39,WNW,303,0.0,0.0,34,0.00,,---,0.00,VWS V14.01,2013-01-11 10:17:00,
2013-01-11 05:22:00,33.3,7.9,30.39,WNW,303,0.0,0.0,34,0.00,,---,0.00,VWS V14.01,2013-01-11 10:22:00,
2013-01-11 05:28:00,33.3,7.9,30.39,WNW,303,0.0,0.0,34,0.00,,---,0.00,VWS V14.01,2013-01-11 10:28:00,
2013-01-11 05:34:00,33.3,7.9,30.39,WNW,303,0.0,0.0,34,0.00,,---,0.00,VWS V14.01,2013-01-11 10:34:00,
2013-01-11 05:40:00,33.3,8.6,30.39,WNW,303,0.0,0.0,35,0.00,,---,0.00,VWS V14.01,2013-01-11 10:40:00,
2013-01-11 05:46:00,33.3,8.6,30.39,WNW,303,0.0,0.0,35,0.00,,---,0.00,VWS V14.01,2013-01-11 10:46:00,
2013-01-11 05:52:00,33.1,8.4,30.39,WNW,303,0.0,0.0,35,0.00,,---,0.00,VWS V14.01,2013-01-11 10:52:00,
2013-01-11 05:57:00,33.1,8.4,30.39,WNW,303,0.0,0.0,35,0.00,,---,0.00,VWS V14.01,2013-01-11 10:57:00,
2013-01-11 06:03:00,33.1,8.4,30.39,WNW,303,0.0,0.0,35,0.00,,---,0.00,VWS V14.01,2013-01-11 11:03:00,
2013-01-11 06:08:00,33.1,8.4,30.39,WNW,303,0.0,0.0,35,0.00,,---,0.00,VWS V14.01,2013-01-11 11:08:00,
2013-01-11 06:14:00,33.1,9.1,30.39,WNW,303,0.0,0.0,36,0.00,,---,0.00,VWS V14.01,2013-01-11 11:14:00,
2013-01-11 06:19:00,32.9,8.9,30.39,WNW,303,0.0,0.0,36,0.00,,---,0.00,VWS V14.01,2013-01-11 11:19:00,
2013-01-11 06:24:00,32.7,8.7,30.42,WNW,303,0.0,0.0,36,0.00,,---,0.00,VWS V14.01,2013-01-11 11:24:00,
2013-01-11 06:30:00,32.5,8.6,30.42,WNW,303,0.0,0.0,36,0.00,,---,0.00,VWS V14.01,2013-01-11 11:30:00,
2013-01-11 06:35:00,32.4,8.4,30.42,WNW,303,0.0,0.0,36,0.00,,---,0.00,VWS V14.01,2013-01-11 11:35:00,
2013-01-11 06:41:00,32.4,8.4,30.42,WNW,303,0.0,0.0,36,0.00,,---,0.00,VWS V14.01,2013-01-11 11:41:00,
2013-01-11 06:46:00,32.5,9.2,30.42,WNW,303,0.0,0.0,37,0.00,,---,0.00,VWS V14.01,2013-01-11 11:46:00,
2013-01-11 06:52:00,32.9,9.5,30.42,NW,314,0.0,0.0,37,0.00,,---,0.00,VWS V14.01,2013-01-11 11:52:00,
2013-01-11 06:58:00,33.1,9.7,30.42,NW,314,0.0,0.0,37,0.00,,---,0.00,VWS V14.01,2013-01-11 11:58:00,
2013-01-11 07:03:00,33.1,9.7,30.42,NW,314,0.0,0.0,37,0.00,,---,0.00,VWS V14.01,2013-01-11 12:03:00,
2013-01-11 07:09:00,33.1,9.7,30.45,NW,313,0.0,0.0,37,0.00,,---,0.00,VWS V14.01,2013-01-11 12:09:00,
2013-01-11 07:14:00,33.1,10.2,30.45,NW,313,0.0,0.0,38,0.00,,---,0.00,VWS V14.01,2013-01-11 12:14:00,
2013-01-11 07:19:00,33.3,10.4,30.45,WNW,297,0.0,0.0,38,0.00,,---,0.00,VWS V14.01,2013-01-11 12:19:00,
2013-01-11 07:24:00,33.3,10.4,30.45,WNW,300,0.0,0.0,38,0.00,,---,0.00,VWS V14.01,2013-01-11 12:24:00,
2013-01-11 07:30:00,33.6,11.3,30.45,WNW,300,0.0,0.0,39,0.00,,---,0.00,VWS V14.01,2013-01-11 12:30:00,
2013-01-11 07:35:00,33.8,10.9,30.45,WNW,300,0.0,0.0,38,0.00,,---,0.00,VWS V14.01,2013-01-11 12:35:00,
2013-01-11 07:41:00,34.5,13.3,30.47,North,7,0.0,0.0,41,0.00,,---,0.00,VWS V14.01,2013-01-11 12:41:00,
2013-01-11 07:47:00,35.1,14.8,30.47,NW,316,0.0,0.0,43,0.00,,---,0.00,VWS V14.01,2013-01-11 12:47:00,
2013-01-11 07:53:00,35.2,15.0,30.47,NW,316,0.0,0.0,43,0.00,,---,0.00,VWS V14.01,2013-01-11 12:53:00,
2013-01-11 07:59:00,35.4,15.2,30.47,NW,313,0.0,0.0,43,0.00,,---,0.00,VWS V14.01,2013-01-11 12:59:00,
2013-01-11 08:05:00,35.6,14.8,30.47,NE,49,0.0,0.0,42,0.00,,---,0.00,VWS V14.01,2013-01-11 13:05:00,
2013-01-11 08:10:00,36.1,15.8,30.47,NE,47,0.0,0.0,43,0.00,,---,0.00,VWS V14.01,2013-01-11 13:10:00,
2013-01-11 08:16:00,38.1,18.1,30.47,NNE,22,0.0,0.0,44,0.00,,---,0.00,VWS V14.01,2013-01-11 13:16:00,
2013-01-11 08:21:00,39.6,18.9,30.47,NNE,12,0.0,0.0,43,0.00,,---,0.00,VWS V14.01,2013-01-11 13:21:00,
2013-01-11 08:27:00,40.5,19.2,30.47,NE,50,0.0,0.0,42,0.00,,---,0.00,VWS V14.01,2013-01-11 13:27:00,
2013-01-11 08:33:00,41.0,18.0,30.47,NE,48,0.0,0.0,39,0.00,,---,0.00,VWS V14.01,2013-01-11 13:33:00,
2013-01-11 08:38:00,41.4,16.4,30.47,NNE,23,0.0,0.0,36,0.00,,---,0.00,VWS V14.01,2013-01-11 13:38:00,
2013-01-11 08:44:00,41.9,15.6,30.47,NNE,12,0.0,0.0,34,0.00,,---,0.00,VWS V14.01,2013-01-11 13:44:00,
2013-01-11 08:50:00,42.3,15.9,30.47,North,11,0.0,0.0,34,0.00,,---,0.00,VWS V14.01,2013-01-11 13:50:00,
2013-01-11 08:55:00,42.3,15.2,30.47,NE,34,0.0,0.0,33,0.00,,---,0.00,VWS V14.01,2013-01-11 13:55:00,
2013-01-11 09:01:00,42.4,15.4,30.47,NNE,30,0.0,0.0,33,0.00,,---,0.00,VWS V14.01,2013-01-11 14:01:00,
2013-01-11 09:06:00,42.8,15.7,30.47,NNE,15,0.0,0.0,33,0.00,,---,0.00,VWS V14.01,2013-01-11 14:06:00,
2013-01-11 09:12:00,42.8,15.7,30.47,North,10,0.0,0.0,33,0.00,,---,0.00,VWS V14.01,2013-01-11 14:12:00,
2013-01-11 09:18:00,43.2,15.3,30.47,NE,42,0.0,0.0,32,0.00,,---,0.00,VWS V14.01,2013-01-11 14:18:00,
2013-01-11 09:23:00,43.3,15.5,30.47,North,357,0.0,0.0,32,0.00,,---,0.00,VWS V14.01,2013-01-11 14:23:00,
2013-01-11 09:29:00,43.5,15.6,30.47,NE,56,0.0,0.0,32,0.00,,---,0.00,VWS V14.01,2013-01-11 14:29:00,
2013-01-11 09:34:00,43.5,14.9,30.47,NNE,27,0.0,0.0,31,0.00,,---,0.00,VWS V14.01,2013-01-11 14:34:00,
2013-01-11 09:40:00,43.9,15.2,30.47,NNE,31,0.0,0.0,31,0.00,,---,0.00,VWS V14.01,2013-01-11 14:40:00,
2013-01-11 09:45:00,44.1,15.4,30.47,South,172,0.0,0.0,31,0.00,,---,0.00,VWS V14.01,2013-01-11 14:45:00,
2013-01-11 09:51:00,44.1,15.4,30.45,NNE,29,0.0,0.0,31,0.00,,---,0.00,VWS V14.01,2013-01-11 14:51:00,
2013-01-11 09:56:00,44.4,15.7,30.45,NNE,17,0.0,0.0,31,0.00,,---,0.00,VWS V14.01,2013-01-11 14:56:00,
2013-01-11 10:01:00,44.6,15.9,30.45,NNE,23,0.0,0.0,31,0.00,,---,0.00,VWS V14.01,2013-01-11 15:01:00,
2013-01-11 10:07:00,44.8,16.0,30.45,NNE,33,2.6,3.6,31,0.00,,---,0.00,VWS V14.01,2013-01-11 15:07:00,
2013-01-11 10:12:00,45.0,16.2,30.45,North,357,3.1,5.7,31,0.00,,---,0.00,VWS V14.01,2013-01-11 15:12:00,
2013-01-11 10:18:00,44.8,16.0,30.45,ENE,64,3.6,6.7,31,0.00,,---,0.00,VWS V14.01,2013-01-11 15:18:00,
2013-01-11 10:23:00,45.0,16.2,30.45,NE,46,0.0,5.7,31,0.00,,---,0.00,VWS V14.01,2013-01-11 15:23:00,
2013-01-11 10:29:00,45.3,16.5,30.45,ENE,64,0.0,3.6,31,0.00,,---,0.00,VWS V14.01,2013-01-11 15:29:00,
2013-01-11 10:34:00,45.5,16.6,30.45,NE,38,3.1,4.6,31,0.00,,---,0.00,VWS V14.01,2013-01-11 15:34:00,
2013-01-11 10:40:00,45.5,15.9,30.45,NNE,28,0.0,0.0,30,0.00,,---,0.00,VWS V14.01,2013-01-11 15:40:00,
2013-01-11 10:46:00,45.7,16.0,30.45,NNE,26,4.6,4.6,30,0.00,,---,0.00,VWS V14.01,2013-01-11 15:46:00,
2013-01-11 10:51:00,45.7,16.0,30.45,SE,133,3.6,4.1,30,0.00,,---,0.00,VWS V14.01,2013-01-11 15:51:00,
2013-01-11 10:57:00,45.9,16.2,30.45,NNE,24,2.6,4.1,30,0.00,,---,0.00,VWS V14.01,2013-01-11 15:57:00,
2013-01-11 11:03:00,45.7,16.0,30.45,North,353,3.1,6.7,30,0.00,,---,0.00,VWS V14.01,2013-01-11 16:03:00,
2013-01-11 11:08:00,45.9,16.2,30.42,NNE,31,0.0,3.1,30,0.00,,---,0.00,VWS V14.01,2013-01-11 16:08:00,
2013-01-11 11:14:00,46.0,16.4,30.42,NE,50,0.0,0.0,30,0.00,,---,0.00,VWS V14.01,2013-01-11 16:14:00,
2013-01-11 11:19:00,46.2,16.5,30.42,NNE,25,4.1,4.6,30,0.00,,---,0.00,VWS V14.01,2013-01-11 16:19:00,
2013-01-11 11:25:00,45.9,16.2,30.42,NE,43,4.1,4.6,30,0.00,,---,0.00,VWS V14.01,2013-01-11 16:25:00,
2013-01-11 11:31:00,46.0,16.4,30.42,ENE,74,2.6,2.6,30,0.00,,---,0.00,VWS V14.01,2013-01-11 16:31:00,
2013-01-11 11:36:00,46.0,16.4,30.42,North,9,0.0,0.0,30,0.00,,---,0.00,VWS V14.01,2013-01-11 16:36:00,
2013-01-11 11:42:00,46.0,16.4,30.42,ESE,106,2.6,4.6,30,0.00,,---,0.00,VWS V14.01,2013-01-11 16:42:00,
2013-01-11 11:47:00,46.4,16.7,30.42,South,175,0.0,0.0,30,0.00,,---,0.00,VWS V14.01,2013-01-11 16:47:00,
2013-01-11 11:53:00,46.4,16.7,30.39,SE,127,0.0,2.6,30,0.00,,---,0.00,VWS V14.01,2013-01-11 16:53:00,
2013-01-11 11:59:00,46.9,17.1,30.39,ESE,105,3.6,4.6,30,0.00,,---,0.00,VWS V14.01,2013-01-11 16:59:00,
2013-01-11 12:04:00,47.1,17.3,30.39,ESE,117,0.0,0.0,30,0.00,,---,0.00,VWS V14.01,2013-01-11 17:04:00,
2013-01-11 12:09:00,47.3,17.5,30.39,ESE,107,0.0,0.0,30,0.00,,---,0.00,VWS V14.01,2013-01-11 17:09:00,
2013-01-11 12:14:00,47.1,14.9,30.39,ENE,70,0.0,0.0,27,0.00,,---,0.00,VWS V14.01,2013-01-11 17:14:00,
2013-01-11 12:20:00,47.1,14.9,30.39,ESE,114,2.6,3.1,27,0.00,,---,0.00,VWS V14.01,2013-01-11 17:20:00,
2013-01-11 12:25:00,47.1,14.9,30.39,NE,55,0.0,0.0,27,0.00,,---,0.00,VWS V14.01,2013-01-11 17:25:00,
2013-01-11 12:31:00,47.1,14.9,30.39,SE,137,0.0,0.0,27,0.00,,---,0.00,VWS V14.01,2013-01-11 17:31:00,
2013-01-11 12:36:00,47.1,14.9,30.39,ESE,113,4.1,4.1,27,0.00,,---,0.00,VWS V14.01,2013-01-11 17:36:00,
2013-01-11 12:42:00,47.3,15.0,30.39,ESE,110,4.1,5.7,27,0.00,,---,0.00,VWS V14.01,2013-01-11 17:42:00,
2013-01-11 12:47:00,47.1,14.9,30.39,East,93,0.0,3.1,27,0.00,,---,0.00,VWS V14.01,2013-01-11 17:47:00,
2013-01-11 12:53:00,47.1,14.9,30.36,East,93,2.6,3.1,27,0.00,,---,0.00,VWS V14.01,2013-01-11 17:53:00,
2013-01-11 12:58:00,47.3,15.0,30.36,South,182,2.6,3.6,27,0.00,,---,0.00,VWS V14.01,2013-01-11 17:58:00,
2013-01-11 13:03:00,47.3,15.0,30.36,ESE,102,2.6,4.1,27,0.00,,---,0.00,VWS V14.01,2013-01-11 18:03:00,
2013-01-11 13:09:00,47.3,15.0,30.39,ESE,106,0.0,3.1,27,0.00,,---,0.00,VWS V14.01,2013-01-11 18:09:00,
2013-01-11 13:15:00,47.3,15.0,30.39,ESE,110,0.0,0.0,27,0.00,,---,0.00,VWS V14.01,2013-01-11 18:15:00,
2013-01-11 13:21:00,47.3,15.0,30.39,SE,143,0.0,4.6,27,0.00,,---,0.00,VWS V14.01,2013-01-11 18:21:00,
2013-01-11 13:27:00,47.3,15.0,30.39,SE,132,0.0,0.0,27,0.00,,---,0.00,VWS V14.01,2013-01-11 18:27:00,
2013-01-11 13:32:00,47.3,15.0,30.39,ESE,122,3.1,3.6,27,0.00,,---,0.00,VWS V14.01,2013-01-11 18:32:00,
2013-01-11 13:38:00,47.3,17.5,30.39,SE,127,3.6,3.6,30,0.00,,---,0.00,VWS V14.01,2013-01-11 18:38:00,
2013-01-11 13:44:00,47.1,14.9,30.39,South,182,3.6,4.1,27,0.00,,---,0.00,VWS V14.01,2013-01-11 18:44:00,
2013-01-11 13:49:00,47.1,14.9,30.39,ESE,122,0.0,3.6,27,0.00,,---,0.00,VWS V14.01,2013-01-11 18:49:00,
2013-01-11 13:55:00,47.1,14.9,30.39,ESE,122,0.0,0.0,27,0.00,,---,0.00,VWS V14.01,2013-01-11 18:55:00,
2013-01-11 14:00:00,47.3,17.5,30.39,SW,234,0.0,0.0,30,0.00,,---,0.00,VWS V14.01,2013-01-11 19:00:00,
2013-01-11 14:06:00,47.1,17.3,30.39,SW,234,4.6,4.6,30,0.00,,---,0.00,VWS V14.01,2013-01-11 19:06:00,
2013-01-11 14:12:00,46.9,17.1,30.39,WSW,242,0.0,0.0,30,0.00,,---,0.00,VWS V14.01,2013-01-11 19:12:00,
2013-01-11 14:17:00,46.8,17.0,30.39,WSW,242,0.0,0.0,30,0.00,,---,0.00,VWS V14.01,2013-01-11 19:17:00,
2013-01-11 14:22:00,46.6,16.8,30.39,ESE,117,0.0,0.0,30,0.00,,---,0.00,VWS V14.01,2013-01-11 19:22:00,
2013-01-11 14:27:00,46.4,16.7,30.39,ESE,108,0.0,0.0,30,0.00,,---,0.00,VWS V14.01,2013-01-11 19:27:00,
2013-01-11 14:32:00,46.0,16.4,30.39,ESE,110,0.0,0.0,30,0.00,,---,0.00,VWS V14.01,2013-01-11 19:32:00,
2013-01-11 14:38:00,45.9,16.2,30.36,ESE,110,0.0,0.0,30,0.00,,---,0.00,VWS V14.01,2013-01-11 19:38:00,
2013-01-11 14:44:00,45.5,15.9,30.36,ESE,110,0.0,0.0,30,0.00,,---,0.00,VWS V14.01,2013-01-11 19:44:00,
2013-01-11 14:49:00,45.5,15.9,30.36,ESE,110,0.0,0.0,30,0.00,,---,0.00,VWS V14.01,2013-01-11 19:49:00,
2013-01-11 14:54:00,45.5,15.9,30.36,SSE,147,0.0,0.0,30,0.00,,---,0.00,VWS V14.01,2013-01-11 19:54:00,
2013-01-11 14:59:00,45.3,15.7,30.36,SSE,147,0.0,0.0,30,0.00,,---,0.00,VWS V14.01,2013-01-11 19:59:00,
2013-01-11 15:05:00,45.1,15.6,30.36,SSE,147,0.0,0.0,30,0.00,,---,0.00,VWS V14.01,2013-01-11 20:05:00,
2013-01-11 15:10:00,45.1,16.3,30.36,SSE,147,0.0,0.0,31,0.00,,---,0.00,VWS V14.01,2013-01-11 20:10:00,
2013-01-11 15:16:00,45.0,16.2,30.36,SSE,147,0.0,0.0,31,0.00,,---,0.00,VWS V14.01,2013-01-11 20:16:00,
2013-01-11 15:22:00,44.8,16.0,30.36,SSE,147,0.0,0.0,31,0.00,,---,0.00,VWS V14.01,2013-01-11 20:22:00,
2013-01-11 15:27:00,44.6,15.9,30.36,SSE,147,0.0,0.0,31,0.00,,---,0.00,VWS V14.01,2013-01-11 20:27:00,
2013-01-11 15:33:00,44.6,15.9,30.36,SSE,147,0.0,0.0,31,0.00,,---,0.00,VWS V14.01,2013-01-11 20:33:00,
2013-01-11 15:38:00,44.4,15.7,30.36,SSE,147,0.0,0.0,31,0.00,,---,0.00,VWS V14.01,2013-01-11 20:38:00,
2013-01-11 15:44:00,44.2,15.5,30.36,SSE,147,0.0,0.0,31,0.00,,---,0.00,VWS V14.01,2013-01-11 20:44:00,
2013-01-11 15:50:00,44.1,16.1,30.36,SSE,147,0.0,0.0,32,0.00,,---,0.00,VWS V14.01,2013-01-11 20:50:00,
2013-01-11 15:55:00,44.1,16.1,30.36,SSE,147,0.0,0.0,32,0.00,,---,0.00,VWS V14.01,2013-01-11 20:55:00,
2013-01-11 16:00:00,43.7,15.8,30.36,WSW,256,0.0,0.0,32,0.00,,---,0.00,VWS V14.01,2013-01-11 21:00:00,
2013-01-11 16:05:00,43.7,15.8,30.36,WSW,256,0.0,0.0,32,0.00,,---,0.00,VWS V14.01,2013-01-11 21:05:00,
2013-01-11 16:11:00,43.5,15.6,30.36,WSW,256,0.0,0.0,32,0.00,,---,0.00,VWS V14.01,2013-01-11 21:11:00,
2013-01-11 16:16:00,43.5,15.6,30.36,WSW,256,0.0,0.0,32,0.00,,---,0.00,VWS V14.01,2013-01-11 21:16:00,
2013-01-11 16:22:00,43.3,15.5,30.36,WSW,256,0.0,0.0,32,0.00,,---,0.00,VWS V14.01,2013-01-11 21:22:00,
2013-01-11 16:27:00,43.2,15.3,30.36,WSW,256,0.0,0.0,32,0.00,,---,0.00,VWS V14.01,2013-01-11 21:27:00,
2013-01-11 16:33:00,42.8,15.0,30.36,WSW,256,0.0,0.0,32,0.00,,---,0.00,VWS V14.01,2013-01-11 21:33:00,
2013-01-11 16:39:00,42.8,15.0,30.36,WSW,256,0.0,0.0,32,0.00,,---,0.00,VWS V14.01,2013-01-11 21:39:00,
2013-01-11 16:45:00,42.6,14.8,30.36,WSW,256,0.0,0.0,32,0.00,,---,0.00,VWS V14.01,2013-01-11 21:45:00,
2013-01-11 16:51:00,42.6,15.6,30.36,WSW,256,0.0,0.0,33,0.00,,---,0.00,VWS V14.01,2013-01-11 21:51:00,
2013-01-11 16:57:00,42.4,15.4,30.36,WSW,256,0.0,0.0,33,0.00,,---,0.00,VWS V14.01,2013-01-11 21:57:00,
2013-01-11 17:02:00,42.4,15.4,30.36,WSW,256,0.0,0.0,33,0.00,,---,0.00,VWS V14.01,2013-01-11 22:02:00,
2013-01-11 17:08:00,42.3,15.2,30.36,WSW,256,0.0,0.0,33,0.00,,---,0.00,VWS V14.01,2013-01-11 22:08:00,
2013-01-11 17:13:00,42.3,15.2,30.36,WSW,256,0.0,0.0,33,0.00,,---,0.00,VWS V14.01,2013-01-11 22:13:00,
2013-01-11 17:19:00,42.3,15.2,30.36,WSW,256,0.0,0.0,33,0.00,,---,0.00,VWS V14.01,2013-01-11 22:19:00,
2013-01-11 17:25:00,42.1,15.1,30.36,WSW,256,0.0,0.0,33,0.00,,---,0.00,VWS V14.01,2013-01-11 22:25:00,
2013-01-11 17:30:00,42.1,15.1,30.36,WSW,256,0.0,0.0,33,0.00,,---,0.00,VWS V14.01,2013-01-11 22:30:00,
2013-01-11 17:35:00,41.9,14.9,30.36,WSW,256,0.0,0.0,33,0.00,,---,0.00,VWS V14.01,2013-01-11 22:35:00,
2013-01-11 17:40:00,41.9,14.9,30.36,WSW,256,0.0,0.0,33,0.00,,---,0.00,VWS V14.01,2013-01-11 22:40:00,
2013-01-11 17:46:00,41.7,15.4,30.36,WSW,256,0.0,0.0,34,0.00,,---,0.00,VWS V14.01,2013-01-11 22:46:00,
2013-01-11 17:51:00,41.7,15.4,30.36,WSW,256,0.0,0.0,34,0.00,,---,0.00,VWS V14.01,2013-01-11 22:51:00,
2013-01-11 17:57:00,41.7,15.4,30.36,SE,136,0.0,0.0,34,0.00,,---,0.00,VWS V14.01,2013-01-11 22:57:00,
2013-01-11 18:03:00,41.9,15.6,30.36,SE,135,0.0,0.0,34,0.00,,---,0.00,VWS V14.01,2013-01-11 23:03:00,
2013-01-11 18:08:00,42.1,15.8,30.36,ESE,119,0.0,0.0,34,0.00,,---,0.00,VWS V14.01,2013-01-11 23:08:00,
2013-01-11 18:14:00,42.3,16.6,30.36,ESE,116,0.0,0.0,35,0.00,,---,0.00,VWS V14.01,2013-01-11 23:14:00,
2013-01-11 18:20:00,42.4,16.7,30.36,ESE,116,0.0,0.0,35,0.00,,---,0.00,VWS V14.01,2013-01-11 23:20:00,
2013-01-11 18:25:00,42.6,16.9,30.36,SE,128,0.0,0.0,35,0.00,,---,0.00,VWS V14.01,2013-01-11 23:25:00,
2013-01-11 18:31:00,42.8,17.1,30.36,ESE,119,0.0,0.0,35,0.00,,---,0.00,VWS V14.01,2013-01-11 23:31:00,
2013-01-11 18:36:00,43.0,17.2,30.33,SE,140,0.0,0.0,35,0.00,,---,0.00,VWS V14.01,2013-01-11 23:36:00,
2013-01-11 18:42:00,43.2,18.0,30.33,SE,131,0.0,0.0,36,0.00,,---,0.00,VWS V14.01,2013-01-11 23:42:00,
2013-01-11 18:47:00,43.3,18.2,30.33,SE,143,0.0,0.0,36,0.00,,---,0.00,VWS V14.01,2013-01-11 23:47:00,
2013-01-11 18:53:00,43.5,19.6,30.33,SE,128,0.0,0.0,38,0.00,,---,0.00,VWS V14.01,2013-01-11 23:53:00,
2013-01-11 18:59:00,43.7,20.4,30.33,SSE,153,0.0,0.0,39,0.00,,---,0.00,VWS V14.01,2013-01-11 23:59:00,
2013-01-11 19:04:00,43.7,21.0,30.33,SE,141,0.0,0.0,40,0.00,,---,0.00,VWS V14.01,2013-01-12 00:04:00,
2013-01-11 19:10:00,43.7,21.0,30.33,South,184,0.0,0.0,40,0.00,,---,0.00,VWS V14.01,2013-01-12 00:10:00,
2013-01-11 19:15:00,43.9,21.1,30.33,SSW,203,0.0,0.0,40,0.00,,---,0.00,VWS V14.01,2013-01-12 00:15:00,
2013-01-11 19:21:00,43.9,21.1,30.33,South,189,0.0,0.0,40,0.00,,---,0.00,VWS V14.01,2013-01-12 00:21:00,
2013-01-11 19:26:00,43.9,21.7,30.33,SSW,199,0.0,0.0,41,0.00,,---,0.00,VWS V14.01,2013-01-12 00:26:00,
2013-01-11 19:32:00,43.7,21.6,30.33,SSW,198,0.0,0.0,41,0.00,,---,0.00,VWS V14.01,2013-01-12 00:32:00,
2013-01-11 19:38:00,43.7,21.6,30.33,SSW,205,0.0,0.0,41,0.00,,---,0.00,VWS V14.01,2013-01-12 00:38:00,
2013-01-11 19:43:00,43.5,22.0,30.33,SW,218,0.0,0.0,42,0.00,,---,0.00,VWS V14.01,2013-01-12 00:43:00,
2013-01-11 19:49:00,43.5,22.0,30.33,South,184,0.0,0.0,42,0.00,,---,0.00,VWS V14.01,2013-01-12 00:49:00,
2013-01-11 19:55:00,43.5,22.0,30.33,South,171,0.0,0.0,42,0.00,,---,0.00,VWS V14.01,2013-01-12 00:55:00,
2013-01-11 20:00:00,43.5,22.0,30.33,SW,226,0.0,0.0,42,0.00,,---,0.00,VWS V14.01,2013-01-12 01:00:00,
2013-01-11 20:06:00,43.5,22.0,30.30,South,185,0.0,0.0,42,0.00,,---,0.00,VWS V14.01,2013-01-12 01:06:00,
2013-01-11 20:11:00,43.5,22.0,30.30,SSE,167,0.0,0.0,42,0.00,,---,0.00,VWS V14.01,2013-01-12 01:11:00,
2013-01-11 20:16:00,43.5,22.5,30.30,SSW,192,0.0,0.0,43,0.00,,---,0.00,VWS V14.01,2013-01-12 01:16:00,
2013-01-11 20:21:00,43.7,22.7,30.30,SSW,197,0.0,0.0,43,0.00,,---,0.00,VWS V14.01,2013-01-12 01:21:00,
2013-01-11 20:27:00,43.7,22.1,30.30,SSW,194,0.0,0.0,42,0.00,,---,0.00,VWS V14.01,2013-01-12 01:27:00,
2013-01-11 20:32:00,43.7,22.1,30.30,South,189,0.0,0.0,42,0.00,,---,0.00,VWS V14.01,2013-01-12 01:32:00,
2013-01-11 20:38:00,43.7,22.1,30.30,SSW,211,0.0,0.0,42,0.00,,---,0.00,VWS V14.01,2013-01-12 01:38:00,
2013-01-11 20:44:00,43.7,22.1,30.30,SSE,155,0.0,0.0,42,0.00,,---,0.00,VWS V14.01,2013-01-12 01:44:00,
2013-01-11 20:49:00,43.7,22.1,30.30,SSW,193,0.0,0.0,42,0.00,,---,0.00,VWS V14.01,2013-01-12 01:49:00,
2013-01-11 20:54:00,43.9,22.3,30.30,SE,132,0.0,0.0,42,0.00,,---,0.00,VWS V14.01,2013-01-12 01:54:00,
2013-01-11 20:59:00,43.9,22.3,30.30,South,169,0.0,0.0,42,0.00,,---,0.00,VWS V14.01,2013-01-12 01:59:00,
2013-01-11 21:05:00,43.9,22.3,30.30,SSE,166,0.0,0.0,42,0.00,,---,0.00,VWS V14.01,2013-01-12 02:05:00,
2013-01-11 21:10:00,43.9,22.3,30.30,SSE,168,0.0,0.0,42,0.00,,---,0.00,VWS V14.01,2013-01-12 02:10:00,
2013-01-11 21:16:00,43.9,22.9,30.30,SSE,149,0.0,0.0,43,0.00,,---,0.00,VWS V14.01,2013-01-12 02:16:00,
2013-01-11 21:21:00,43.7,22.7,30.30,SW,227,0.0,0.0,43,0.00,,---,0.00,VWS V14.01,2013-01-12 02:21:00,
2013-01-11 21:27:00,43.7,22.7,30.30,South,188,0.0,0.0,43,0.00,,---,0.00,VWS V14.01,2013-01-12 02:27:00,
2013-01-11 21:32:00,43.7,23.2,30.30,SSW,198,0.0,0.0,44,0.00,,---,0.00,VWS V14.01,2013-01-12 02:32:00,
2013-01-11 21:38:00,43.5,23.6,30.30,SSE,151,0.0,0.0,45,0.00,,---,0.00,VWS V14.01,2013-01-12 02:38:00,
2013-01-11 21:44:00,43.5,23.6,30.30,South,169,0.0,0.0,45,0.00,,---,0.00,VWS V14.01,2013-01-12 02:44:00,
2013-01-11 21:49:00,43.5,23.6,30.30,SSW,204,0.0,0.0,45,0.00,,---,0.00,VWS V14.01,2013-01-12 02:49:00,
2013-01-11 21:54:00,43.5,24.1,30.30,SSE,168,0.0,0.0,46,0.00,,---,0.00,VWS V14.01,2013-01-12 02:54:00,
2013-01-11 21:59:00,43.5,24.6,30.30,SE,145,0.0,0.0,47,0.00,,---,0.00,VWS V14.01,2013-01-12 02:59:00,
2013-01-11 22:05:00,43.3,24.5,30.30,SSE,163,0.0,0.0,47,0.00,,---,0.00,VWS V14.01,2013-01-12 03:05:00,
2013-01-11 22:10:00,43.3,25.5,30.27,SSE,153,0.0,0.0,49,0.00,,---,0.00,VWS V14.01,2013-01-12 03:10:00,
2013-01-11 22:15:00,43.3,25.5,30.27,ESE,119,0.0,0.0,49,0.00,,---,0.00,VWS V14.01,2013-01-12 03:15:00,
2013-01-11 22:20:00,43.3,26.0,30.27,SE,128,0.0,0.0,50,0.00,,---,0.00,VWS V14.01,2013-01-12 03:20:00,
2013-01-11 22:26:00,43.5,27.1,30.27,SSE,164,0.0,0.0,52,0.00,,---,0.00,VWS V14.01,2013-01-12 03:26:00,
2013-01-11 22:31:00,43.5,27.1,30.27,SSW,202,0.0,0.0,52,0.00,,---,0.00,VWS V14.01,2013-01-12 03:31:00,
2013-01-11 22:37:00,43.5,27.5,30.27,SSE,165,0.0,0.0,53,0.00,,---,0.00,VWS V14.01,2013-01-12 03:37:00,
2013-01-11 22:43:00,43.5,27.5,30.27,SSW,209,0.0,0.0,53,0.00,,---,0.00,VWS V14.01,2013-01-12 03:43:00,
2013-01-11 22:48:00,43.5,27.5,30.27,South,187,0.0,0.0,53,0.00,,---,0.00,VWS V14.01,2013-01-12 03:48:00,
2013-01-11 22:54:00,43.5,28.0,30.27,SSW,192,0.0,0.0,54,0.00,,---,0.00,VWS V14.01,2013-01-12 03:54:00,
2013-01-11 22:59:00,43.5,28.4,30.27,SW,216,0.0,0.0,55,0.00,,---,0.00,VWS V14.01,2013-01-12 03:59:00,
2013-01-11 23:05:00,43.5,28.4,30.27,SSW,205,0.0,0.0,55,0.00,,---,0.00,VWS V14.01,2013-01-12 04:05:00,
2013-01-11 23:11:00,43.3,28.7,30.27,SSE,154,0.0,0.0,56,0.00,,---,0.00,VWS V14.01,2013-01-12 04:11:00,
2013-01-11 23:17:00,43.3,28.7,30.27,SW,218,0.0,0.0,56,0.00,,---,0.00,VWS V14.01,2013-01-12 04:17:00,
2013-01-11 23:23:00,43.2,28.5,30.27,SSW,207,0.0,0.0,56,0.00,,---,0.00,VWS V14.01,2013-01-12 04:23:00,
2013-01-11 23:29:00,43.2,28.5,30.27,South,191,0.0,0.0,56,0.00,,---,0.00,VWS V14.01,2013-01-12 04:29:00,
2013-01-11 23:34:00,43.2,29.0,30.27,SSE,148,0.0,0.0,57,0.00,,---,0.00,VWS V14.01,2013-01-12 04:34:00,
2013-01-11 23:40:00,43.2,29.0,30.24,SE,142,0.0,0.0,57,0.00,,---,0.00,VWS V14.01,2013-01-12 04:40:00,
2013-01-11 23:45:00,43.0,28.8,30.24,SE,139,0.0,0.0,57,0.00,,---,0.00,VWS V14.01,2013-01-12 04:45:00,
2013-01-11 23:50:00,42.8,28.6,30.24,SSE,153,0.0,0.0,57,0.00,,---,0.00,VWS V14.01,2013-01-12 04:50:00,
2013-01-11 23:55:00,42.8,28.6,30.24,SSW,199,0.0,0.0,57,0.00,,---,0.00,VWS V14.01,2013-01-12 04:55:00,